Regional Weather Roundup
Issued by NWS

Home | Current Version | Previous Version | Graphics & Text | Print | Product List | Glossary On
Versions: 1 2 3 4 5 6 7 8 9 10 11 12 13 14 15 16 17 18 19 20 21 22 23 24 25 26 27 28 29 30 31 32 33 34 35 36 37 38 39 40 41 42 43 44 45 46 47 48 49 50
000
ASUS45 KTFX 011910
RWRMT
MONTANA REGIONAL WEATHER ROUNDUP
NATIONAL WEATHER SERVICE GREAT FALLS MT
1200 PM MST THU DEC 01 2016

NOTE: "FAIR" INDICATES FEW OR NO CLOUDS BELOW 12000 FEET WITH NO
SIGNIFICANT WEATHER AND/OR OBSTRUCTIONS TO VISIBILITY.

MTZ001>007-043-012000-
WEST OF THE DIVIDE

CITY           SKY/WX    TMP DP  RH WIND       PRES   REMARKS
KALISPELL      CLOUDY    35  32  88 S3        30.00R
MISSOULA       LGT SNOW  32  31  96 CALM      30.05S FOG
BUTTE          CLOUDY    29  18  63 CALM      29.95F
MULLAN PASS    SNOW      24  22  91 CALM      29.95S VSB 1/4
ANACONDA         N/A     32  19  59 W10       29.97R WCI  24
DEER LODGE       N/A     30  25  80 CALM      30.00R
EUREKA           N/A     34  28  80 NW6       30.03R WCI  29
HAMILTON         N/A     37  21  52 S5        30.03S
LIBBY            N/A     34  30  86 CALM      30.02S
PLAINS           N/A     35  32  89 CALM      30.05
RONAN            N/A     34  32  92 CALM      30.05S
$$

MTZ008-052>055-012000-
SOUTHWEST MONTANA

CITY           SKY/WX    TMP DP  RH WIND       PRES   REMARKS
BOZEMAN        FLURRIES  34  23  64 VRB3      29.98S
DILLON         CLOUDY    32  17  54 SW13      29.96F WCI  22
W YELLOWSTONE  CLOUDY    25  18  74 CALM      29.94F
ENNIS          PTSUNNY   32  18  55 CALM      30.00F
THREE FORKS      N/A     32  26  78 CALM      29.97S
$$

MTZ009-010-012-014-046-048-049-054-012000-
EAST SLOPES AND CENTRAL MONTANA

CITY           SKY/WX    TMP DP  RH WIND       PRES   REMARKS
CUT BANK       CLOUDY    34  23  64 N13       29.91R WCI  25
GREAT FALLS    PTSUNNY   39  23  52 SW14      29.91S WCI  31
MALMSTROM AFB  CLOUDY    38  23  55 W16G22    29.92S WCI  29
HELENA         CLOUDY    37  21  52 W13       29.96S WCI  29
AUGUSTA        CLOUDY    37  20  49 W8        29.89S WCI  31
BOWMANS CRNR   PTSUNNY   37  22  54 SW15      29.88F WCI  28
CHOTEAU          N/A     39  23  52 CALM      29.92F
CONRAD           N/A     37  27  68 CALM      29.94R
FAIRFIELD      PTSUNNY   38  21  51 W6        29.90S
POWER          PTSUNNY   39  22  51 W12G20    29.90S WCI  31
RAYNESFORD     PTSUNNY   38  22  53 W17G25    29.90S WCI  28
ULM            PTSUNNY   38  25  60 W12G22    29.92S WCI  30
$$

MTZ011-013-016-021-045-047-050-051-012000-
NORTH CENTRAL MONTANA

CITY           SKY/WX    TMP DP  RH WIND       PRES   REMARKS
HAVRE          CLOUDY    35  25  66 W8        29.93R WCI  29
LEWISTOWN      SUNNY     38  20  48 NW12      29.89F WCI  30
N BAR RANCH    CLOUDY    39  18  41 NW14      29.89S WCI  31
CHINOOK          N/A     32  25  74 W5        29.93S
DENTON           N/A     40  20  46 NW9G25    29.87S
GEYSER         CLOUDY    38  21  49 W16G23    29.89S WCI  29
GRASS RANGE      N/A     39  20  45 W9G17     29.86F
JUDITH GAP       N/A     31  18  57 S3        29.88F
ROY              N/A     40  22  46 MISG      29.87F
STANFORD         N/A     36  19  51 NW13      29.89R WCI  27
WINIFRED         N/A     38  21  50 MISG      29.88F
$$

MTZ017>020-022>027-061-062-012000-
NORTHEAST MONTANA

CITY           SKY/WX    TMP DP  RH WIND       PRES   REMARKS
GLASGOW        CLOUDY    27  24  89 E8        29.93F WCI  19
JORDAN           N/A     35  28  75 W3        29.91F
SIDNEY         CLOUDY    30  25  81 CALM      29.99F
WOLF POINT     SUNNY     33  24  69 E5        29.97F
PLENTYWOOD       N/A     28  27  93 SE6       29.97S WCI  22
SCOBEY           N/A     29  21  71 S6        29.93  WCI  23
$$

MTZ028>42-056>058-012000-
SOUTHCENTRAL AND SOUTHEAST MONTANA

CITY           SKY/WX    TMP DP  RH WIND       PRES   REMARKS
BAKER          CLOUDY    27  20  75 CALM      29.94F
BILLINGS       MOSUNNY   41  17  38 SW13      29.91F
LIVINGSTON     SUNNY     35  22  58 W17       29.93F WCI  25
MILES CITY     CLOUDY    23  17  78 SE5       29.94F
BIG TIMBER     SUNNY     37  19  48 W24G32    29.93F WCI  26
EKALAKA          N/A     27  17  65 W1        29.89F
FORSYTH          N/A     34  27  75 NE3       29.93F
HARLOWTON        N/A     38  21  51 W20       29.90S WCI  27
LAUREL           N/A     42  17  36 SW10      29.90F
ROUNDUP          N/A     41  19  41 S5        29.83F
$$

REGIONAL REPORTS...DAKOTAS

CITY           SKY/WX    TMP DP  RH WIND       PRES   REMARKS
WILLISTON      CLOUDY    31  25  78 CALM      29.99F
MINOT          CLOUDY    29  26  89 N6        30.00S WCI  23
DICKINSON      CLOUDY    25  23  92 NW5       29.94F
BEACH          MIX PCPN  27  25  93 CALM      29.98S
CROSBY         CLOUDY    28  28 100 SW5       30.01S
TIOGA          CLOUDY    27  27 100 CALM      29.99F
WATFORD CITY   CLOUDY    27  25  93 CALM      29.99S
BISMARCK       CLOUDY    31  28  89 N3        29.99F FOG
GRAND FORKS    CLOUDY    31  25  78 N16       29.97F WCI  20
FARGO          CLOUDY    32  28  85 N14       29.95S WCI  22
BUFFALO SD       N/A     29  21  72 NW5       29.86F
RAPID CITY     SUNNY     38  20  48 N7        29.91F
$$

REGIONAL REPORTS...WYOMING/IDAHO/WASHINGTON

CITY           SKY/WX    TMP DP  RH WIND       PRES   REMARKS
GILLETTE       CLOUDY    34  23  64 W10       29.90F WCI  26
SHERIDAN       CLOUDY    37  21  52 CALM      29.91F
BUFFALO WY     PTSUNNY   39  15  37 CALM      29.91F
CODY           CLOUDY    35  19  52 CALM      29.91F
YELLOWSTONE LA   N/A     21  14  74 W6        29.90F WCI  13
IDAHO FALLS    CLOUDY    28  24  85 S15       30.05F WCI  16
SALMON         CLOUDY    30  23  74 CALM      30.06F
BOISE          CLOUDY    36  28  73 NW8       30.17F WCI  30
SPOKANE        CLOUDY    33  31  92 SW10      30.10S WCI  25
$$

REGIONAL REPORTS...ALBERTA

CITY           SKY/WX    TMP DP  RH WIND       PRES   REMARKS
EDMONTON       CLOUDY    23  19  86 S5        29.93F FOG
CALGARY        PTSUNNY   32  28  86 N10       29.90S WCI  24
LETHBRIDGE     CLOUDY    34  28  80 W8        29.91S WCI  27
MEDICINE HAT   CLOUDY    27  21  80 W7        29.95S WCI  19
WATERTON GATE    N/A     34  21  60 W8          N/A  WCI  27
CARDSTON         N/A     32  28  86 W9          N/A  WCI  24
MILK RIVER       N/A     32  30  93 NW8         N/A  WCI  25
$$

REGIONAL REPORTS...SASKATCHEWAN

CITY           SKY/WX    TMP DP  RH WIND       PRES   REMARKS
SWIFT CURRENT  CLOUDY    28  27  93 W8        29.88S WCI  20
REGINA         CLOUDY    28  25  86 SE7       29.98S WCI  21
SASKATOON      CLOUDY    28  23  80 SE8       29.98F WCI  20
VAL MARIE        N/A     28  25  86 S3          N/A
ROCKGLEN         N/A     27  25  93 SW5         N/A
ASSINIBOIA       N/A     23  21  93 W5          N/A
$$



USA.gov is the U.S. government's official web portal to all federal, state and local government web resources and services.